Location: La Sioule Rivi�re
(46.3664°N, 3.3197°E)
Time: 13:04:45
(UTC+00:00)

Cosmos 1386 Rocket - Pass Details

Date: 29 October 2020
Orbit: 930 x 1005 km, 83.0° (Epoch: 23 November)

Event Time Altitude Azimuth Distance (km) Brightness Sun altitude
Rises 18:15:47 0° 351° (N) 3,745 7.7 -17.7°
Reaches altitude 10° 18:18:20 10° 352° (N) 2,788 7.0 -18.2°
Maximum altitude 18:24:46 88° 80° (E) 1,004 4.5 -19.3°
Drops below altitude 10° 18:31:05 10° 173° (S) 2,735 6.8 -20.4°
Sets 18:33:34 0° 173° (S) 3,669 7.4 -20.8°
